Regional Weather Roundup
Issued by NWS

Home | Current Version | Previous Version | Graphics & Text | Print | Product List | Glossary On
Versions: 1 2 3 4 5 6 7 8 9 10 11 12 13 14 15 16 17 18 19 20 21 22 23 24 25 26 27 28 29 30 31 32 33 34 35 36 37 38 39 40 41 42 43 44 45 46 47 48 49 50
000
ASUS43 KMPX 010601
RWRMN
WEATHER ROUNDUP FOR MINNESOTA
NATIONAL WEATHER SERVICE TWIN CITIES/CHANHASSEN MN
1200 AM CST SUN FEB 01 2015


NOTE: "FAIR" INDICATES FEW OR NO CLOUDS BELOW 12,000 FEET WITH NO
SIGNIFICANT WEATHER AND/OR OBSTRUCTIONS TO VISIBILITY. N/A MEANS
CURRENT SKY AND/OR WEATHER CONDITIONS ARE NOT AVAILABLE.

MNZ060>063-068>070-010700-
   Twin Cities Metro

CITY           SKY/WX    TMP DP  RH WIND       PRES   REMARKS
TWIN CITIES    CLOUDY    21   8  57 NE15G25   30.20S WCI   8
6HR MIN TEMP:  21; 6HR MAX TEMP:  27;

ST PAUL        CLOUDY    21   9  59 NE14G25   30.23S WCI   8
CRYSTAL        CLOUDY    21   9  59 NE14      30.21S WCI   8
BLAINE         CLOUDY    21   9  58 NE10G20   30.22S WCI  10
LAKEVILLE      CLOUDY    19  12  73 NE17      30.17S WCI   4
EDEN PRAIRIE   CLOUDY    22   9  57 NE16G28   30.18S WCI   8
6HR MIN TEMP:  22; 6HR MAX TEMP:  27;

SOUTH ST PAUL  CLOUDY    22  10  60 NE14G21   30.20S WCI   9
LAKE ELMO      CLOUDY    21  10  63 NE16      30.22S WCI   7
$$
MNZ001>005-007-008-013>017-022>024-027-028-010700-
   Northwest Minnesota

CITY           SKY/WX    TMP DP  RH WIND       PRES   REMARKS
BEMIDJI        PTCLDY    -6 -12  74 N8        30.39R WCI -22
HALLOCK        PTCLDY   -11 -20  64 N10       30.57R WCI -30
ROSEAU         PTCLDY   -11 -18  70 N8        30.52R WCI -28
WARROAD        FAIR     -11 -18  70 NW3       30.51R
THIEF RVR FALL PTCLDY    -6 -15  65 NE12      30.47R WCI -24
CROOKSTON      PTCLDY    -6 -13  71 N13       30.52R WCI -25
FOSSTON        PTCLDY    -8 -15  71 NE12G17   30.42R WCI -27
DETROIT LAKES  PTCLDY     3  -4  72 NE8       30.35R WCI -10
MOORHEAD       FAIR       1  -8  66 N20G26    30.42R WCI -20
PARK RAPIDS    CLEAR      1  -7  68 N7G17     30.33R WCI -12
MAHNOMEN       FAIR      -3 -10  70 NE16      30.38S WCI -24
$$
MNZ006-009>011-018-025>026-010700-
   North Central Minnesota

CITY           SKY/WX    TMP DP  RH WIND       PRES   REMARKS
BAUDETTE       PTCLDY   -12 -19  71 N7        30.47R WCI -27
FLAG ISLAND    PTCLDY   -13 -18  77 N8        30.51R WCI -30
INTL FALLS     MOCLDY   -11 -19  68 NE5       30.45R WCI -23
6HR MIN TEMP: -11; 6HR MAX TEMP:  -2;

WASKISH        PTCLDY    -9 -15  77 CALM      30.45R
BIG FORK       PTCLDY    -8 -17  65 N6        30.41S WCI -21
LONGVILLE      MOCLDY     0  -9  65 NE5       30.36R WCI -10
GRAND RAPIDS   PTCLDY    -2 -11  65 N7        30.34S WCI -16
CRANE LAKE     PTCLDY   -20 -26  76 CALM      30.47R
ORR            PTCLDY   -13 -18  77 CALM      30.39R
COOK           PTCLDY   -11 -17  77 CALM      30.40S
WALKER         FAIR      -2  -8  72 N5        30.36R WCI -12
$$
MNZ012-019>021-037-010700-
   Northeast Minnesota

CITY           SKY/WX    TMP DP  RH WIND       PRES   REMARKS
DULUTH         MOCLDY     2 -10  57 N10       30.30S WCI -14
6HR MIN TEMP:   2; 6HR MAX TEMP:  13;

ELY            PTCLDY   -11 -17  77 N3        30.39R
HIBBING        FAIR      -3 -13  62 N7        30.37R WCI -16
EVELETH        PTCLDY    -2 -11  65 NE6       30.37S WCI -14
DULUTH HARBOR  CLOUDY    10   3  72 NE21      30.38S WCI  -9
TWO HARBORS    PTCLDY     3  -8  60 N6        30.33S WCI  -8
SILVER BAY     MOCLDY     1 -11  55 N6        30.36R WCI -10
GRAND MARAIS     N/A     -2 -16  51 N12G22    30.45R WCI -20
G MARAIS ARPRT PTCLDY   -11 -20  64 N10       30.31R WCI -30
$$
MNZ029>031-032-039>041-046>048-054>057-064-010700-
   West Central Minnesota

CITY           SKY/WX    TMP DP  RH WIND       PRES   REMARKS
FERGUS FALLS   MOCLDY     7  -6  56 NE15      30.36R WCI -11
WHEATON        CLOUDY     9   0  66 N17       30.33R WCI -10
MORRIS         CLOUDY    14   3  62 NE16      30.25R WCI  -2
ALEXANDRIA     CLOUDY    11   1  64 NE15      30.25R WCI  -5
ELBOW LAKE     CLOUDY     9  -1  65 NE16G22   30.27R WCI  -8
WADENA         FAIR       5  -4  66 NE10G17   30.30R WCI -10
GLENWOOD       CLOUDY    12   3  67 N17       30.23R WCI  -5
APPLETON       CLOUDY    18   5  57 NE20G25   30.24R WCI   1
BENSON         CLOUDY    18   3  53 E10G18    30.23R WCI   6
ORTONVILLE     CLOUDY    16   3  57 N15G26    30.25R WCI   1
MADISON        LGT SNOW  19  14  79 NE20      30.23R WCI   4
WILLMAR        MOCLDY    21   5  49 NE17      30.21R WCI   7
$$
MNZ033>034-036-042>043-049>051-058-059-010700-
   Central Minnesota

CITY           SKY/WX    TMP DP  RH WIND       PRES   REMARKS
ST CLOUD       CLOUDY    17   3  54 NE13G21   30.25R WCI   4
6HR MIN TEMP:  17; 6HR MAX TEMP:  24;

SAUK CENTRE    CLOUDY    14   1  57 NE14      30.25R WCI  -1
PAYNESVILLE    CLOUDY    16   3  57 N13       30.22R WCI   2
AITKIN         CLOUDY     9  -6  52 NE10G16   30.32R WCI  -6
PINE RIVER     PTCLDY     3  -6  66 N9        30.36R WCI -11
BRAINERD       MOCLDY     7  -4  60 NE14      30.32R WCI -10
STAPLES        MOCLDY     7  -6  56 NE9G18    30.30R WCI  -7
LONG PRAIRIE   CLOUDY    12   0  57 N12G21    30.27R WCI  -2
LITTLE FALLS   CLOUDY    12  -2  52 NE7       30.29R WCI   2
LITCHFIELD     CLOUDY    21   9  58 NE12G17   30.20R WCI   9
BUFFALO        CLOUDY    20   9  62 NE15G21   30.23R WCI   6
MAPLE LAKE     CLOUDY    20  10  63 NE15G23   30.23R WCI   7
$$
MNZ037-044-045-052-053-010700-
   East Central Minnesota

CITY           SKY/WX    TMP DP  RH WIND       PRES   REMARKS
PRINCETON      CLOUDY    18   7  62 NE13G20   30.25S WCI   4
MORA           CLOUDY    14   1  57 NE7       30.30R WCI   4
CAMBRIDGE      CLOUDY    18   7  62 NE10G17   30.25S WCI   6
RUSH CITY      CLOUDY    16   6  65 NE12G17   30.28S WCI   2
MOOSE LAKE     CLOUDY     9  -4  56 NE9       30.31S WCI  -5
HINCKLEY       MOCLDY    14   5  67 NE12      30.30R WCI   0
CLOQUET        MOCLDY     3  -8  60 N7        30.31S WCI  -9
MCGREGOR       MOCLDY     5  -4  66 NE9G18    30.33S WCI  -9
$$
MNZ071>073-080-081-089-090-097-098-010700-
   Southwest Minnesota

CITY           SKY/WX    TMP DP  RH WIND       PRES   REMARKS
MONTEVIDEO     CLOUDY    19  10  68 E15       30.22R WCI   5
GRANITE FALLS  CLOUDY    22  10  59 N18       30.19R WCI   7
CANBY          CLOUDY    19  12  73 N18G25    30.20R WCI   4
MARSHALL       CLOUDY    21  10  63 NE17      30.15S WCI   7
REDWOOD FALLS  CLOUDY    24  10  55 NE10G23   30.15R WCI  14
OLIVIA         CLOUDY    21  10  63 NE16G24   30.16S WCI   7
PIPESTONE      LGT SNOW  19  18  93 NE13      30.06S WCI   7
WINDOM         LGT SNOW  23  21  93 NE16G23   30.07S WCI  10
WORTHINGTON    CLOUDY    28  19  69 NE23      30.04S WCI  14
JACKSON        LGT SNOW  25  21  86 NE20      30.04S WCI  11
TRACY          CLOUDY    24  16  74 NE15      30.11S WCI  11
SLAYTON        LGT SNOW  21  20  96 NE9       30.07S WCI  11
$$
MNZ065>067-074>077-082>085-091>093-010700-
   South Central Minnesota

CITY           SKY/WX    TMP DP  RH WIND       PRES   REMARKS
MANKATO        CLOUDY    25  16  68 NE18G25   30.11S WCI  11
NEW ULM        CLOUDY    25  14  63 NE13G21   30.13R WCI  13
ST JAMES       LGT SNOW  25  21  86 NE10      30.11S WCI  15
FAIRMONT       CLOUDY    25  19  80 NE18      30.05R WCI  11
GLENCOE        CLOUDY    23  13  66 NE9G17    30.17R WCI  13
FARIBAULT      CLOUDY    23  16  74 NE14G21   30.13F WCI  11
OWATONNA       LGT SNOW  23  19  86 NE16G24   30.10S WCI  10
WASECA         LGT SNOW  23  19  86 NE17      30.11S WCI   9
ALBERT LEA     LGT SNOW  25  25 100 NE18      30.06S VSB 1   WCI  11
$$
MNZ078>079-086>088-094>096-010700-
   Southeast Minnesota

CITY           SKY/WX    TMP DP  RH WIND       PRES   REMARKS
ROCHESTER      LGT SNOW  24  21  88 NE16      30.08F VSB 1   WCI  11
6HR MIN TEMP:  24; 6HR MAX TEMP:  27; 6HR PCP:  0.13;

RED WING       CLOUDY    21  10  63 NE12      30.17F WCI   9
STANTON        CLOUDY    24  15  68 NE18G25   30.14F WCI  10
DODGE CENTER   LGT SNOW  25  21  86 NE17G23   30.08F VSB 1   WCI  11
WINONA         LGT SNOW  28  23  80 E7        30.17S WCI  21
AUSTIN         LGT SNOW  25  21  86 NE17G25   30.06S WCI  11
PRESTON        LGT SNOW  24  22  93 NE9G16    30.07F WCI  14
$$
ABBREVIATIONS USED IN REMARKS
   TC - TEMPERATURES IN CELSIUS
  WCI - WIND CHILL INDEX
   HX - HEAT INDEX
  VSB - VISIBILITY
$$


USA.gov is the U.S. government's official web portal to all federal, state and local government web resources and services.